VLG4ZN LEBL-LEMH

Flight info

Callsign VLG4ZN
Flight time 0h 37m
Altitude 19000
Route DUNES Q700 SARGO
Aircraft A319/M-SDE3FGHIRWY/LB1

Departure

Time 2026-04-16 14:16
Airport Josep Tarradellas Barcelona-El Prat Airport (LEBL)

Arrival

Time 2026-04-16 14:53
Airport Menorca Airport (LEMH)
Time Latitude Longitude Altitude Speed Heading
2026-04-16 13:40 41.29226 2.08157 19 ft 0 kts 182°
2026-04-16 13:58 41.29227 2.08157 19 ft 0 kts 182°
2026-04-16 14:05 41.29235 2.08158 20 ft 3 kts 182°
2026-04-16 14:06 41.29258 2.08159 23 ft 3 kts 183°
2026-04-16 14:06 41.29280 2.08161 23 ft 3 kts 172°
2026-04-16 14:06 41.29299 2.08150 20 ft 3 kts 118°
2026-04-16 14:06 41.29302 2.08128 40 ft 1 kts 65°
2026-04-16 14:07 41.29295 2.08107 11 ft 0 kts 65°
2026-04-16 14:09 41.29298 2.08116 19 ft 3 kts 66°
2026-04-16 14:09 41.29304 2.08136 19 ft 4 kts 66°
2026-04-16 14:09 41.29320 2.08184 21 ft 7 kts 67°
2026-04-16 14:10 41.29346 2.08257 19 ft 10 kts 64°
2026-04-16 14:10 41.29372 2.08336 19 ft 9 kts 72°
2026-04-16 14:10 41.29342 2.08393 19 ft 8 kts 158°
2026-04-16 14:10 41.29292 2.08422 21 ft 8 kts 154°
2026-04-16 14:11 41.29234 2.08459 21 ft 11 kts 156°
2026-04-16 14:11 41.29153 2.08505 20 ft 15 kts 156°
2026-04-16 14:11 41.29054 2.08566 18 ft 15 kts 155°
2026-04-16 14:11 41.28974 2.08615 21 ft 11 kts 156°
2026-04-16 14:12 41.28893 2.08663 16 ft 12 kts 155°
2026-04-16 14:12 41.28863 2.08738 17 ft 11 kts 62°
2026-04-16 14:12 41.28906 2.08854 16 ft 17 kts 65°
2026-04-16 14:12 41.28961 2.09016 19 ft 22 kts 65°
2026-04-16 14:13 41.29029 2.09219 17 ft 26 kts 66°
2026-04-16 14:13 41.29105 2.09441 19 ft 27 kts 65°
2026-04-16 14:13 41.29181 2.09660 18 ft 24 kts 65°
2026-04-16 14:13 41.29245 2.09846 17 ft 17 kts 66°
2026-04-16 14:14 41.29280 2.09952 18 ft 11 kts 66°
2026-04-16 14:14 41.29266 2.10048 16 ft 12 kts 112°
2026-04-16 14:14 41.29235 2.10156 15 ft 11 kts 105°
2026-04-16 14:14 41.29253 2.10260 15 ft 12 kts 95°
2026-04-16 14:15 41.29206 2.10283 15 ft 8 kts 242°
2026-04-16 14:15 41.29181 2.10208 17 ft 12 kts 246°
2026-04-16 14:15 41.29075 2.09895 20 ft 74 kts 245°
2026-04-16 14:15 41.28758 2.08976 20 ft 141 kts 245°
2026-04-16 14:16 41.28324 2.07715 553 ft 148 kts 244°
2026-04-16 14:16 41.27713 2.06649 1319 ft 150 kts 209°
2026-04-16 14:16 41.26607 2.06379 1823 ft 176 kts 186°
2026-04-16 14:16 41.25299 2.06286 2285 ft 200 kts 186°
2026-04-16 14:17 41.23872 2.06181 3017 ft 209 kts 186°
2026-04-16 14:17 41.22395 2.06068 3836 ft 216 kts 187°
2026-04-16 14:17 41.20869 2.05944 4647 ft 224 kts 186°
2026-04-16 14:17 41.19288 2.05811 5438 ft 231 kts 186°
2026-04-16 14:18 41.17676 2.05542 6257 ft 235 kts 197°
2026-04-16 14:18 41.16123 2.04683 6874 ft 250 kts 210°
2026-04-16 14:18 41.14562 2.03596 7702 ft 256 kts 210°
2026-04-16 14:18 41.12967 2.02500 8609 ft 260 kts 210°
2026-04-16 14:19 41.11347 2.01395 9542 ft 264 kts 209°
2026-04-16 14:19 41.09688 2.00169 10112 ft 284 kts 215°
2026-04-16 14:19 41.07994 1.98648 10530 ft 306 kts 217°
2026-04-16 14:19 41.06185 1.96972 10872 ft 329 kts 217°
2026-04-16 14:20 41.04249 1.95244 11472 ft 342 kts 210°
2026-04-16 14:20 41.01972 1.94223 12220 ft 352 kts 189°
2026-04-16 14:20 40.99518 1.94361 13013 ft 358 kts 166°
2026-04-16 14:20 40.97244 1.95711 13809 ft 362 kts 143°
2026-04-16 14:21 40.95508 1.98103 14534 ft 364 kts 121°
2026-04-16 14:21 40.94574 2.01203 15226 ft 364 kts 98°
2026-04-16 14:21 40.94300 2.04535 15933 ft 367 kts 93°
2026-04-16 14:21 40.94081 2.07914 16636 ft 370 kts 92°
2026-04-16 14:22 40.93865 2.11325 17326 ft 375 kts 92°
2026-04-16 14:22 40.93642 2.14781 18021 ft 379 kts 92°
2026-04-16 14:22 40.93411 2.18268 18667 ft 383 kts 93°
2026-04-16 14:22 40.93174 2.21759 19052 ft 386 kts 93°
2026-04-16 14:23 40.92931 2.25291 19170 ft 386 kts 93°
2026-04-16 14:23 40.92685 2.28833 19204 ft 386 kts 93°
2026-04-16 14:23 40.92441 2.32365 19204 ft 386 kts 93°
2026-04-16 14:23 40.92198 2.35902 19204 ft 386 kts 93°
2026-04-16 14:24 40.91954 2.39428 19205 ft 386 kts 93°
2026-04-16 14:24 40.91706 2.42961 19205 ft 386 kts 93°
2026-04-16 14:24 40.91458 2.46484 19204 ft 385 kts 93°
2026-04-16 14:24 40.91209 2.50016 19204 ft 385 kts 93°
2026-04-16 14:25 40.90959 2.53545 19205 ft 385 kts 93°
2026-04-16 14:25 40.90708 2.57068 19203 ft 385 kts 93°
2026-04-16 14:25 40.90454 2.60594 19203 ft 385 kts 93°
2026-04-16 14:25 40.90201 2.64121 19206 ft 385 kts 93°
2026-04-16 14:26 40.89948 2.67646 19202 ft 385 kts 93°
2026-04-16 14:26 40.89695 2.71171 19205 ft 385 kts 93°
2026-04-16 14:26 40.89442 2.74687 19202 ft 385 kts 93°
2026-04-16 14:26 40.89185 2.78206 19203 ft 385 kts 93°
2026-04-16 14:27 40.88925 2.81715 19203 ft 385 kts 93°
2026-04-16 14:27 40.88663 2.85238 19203 ft 384 kts 93°
2026-04-16 14:27 40.88402 2.88758 19204 ft 384 kts 93°
2026-04-16 14:27 40.88139 2.92272 19206 ft 384 kts 93°
2026-04-16 14:28 40.87875 2.95784 19207 ft 384 kts 93°
2026-04-16 14:28 40.87612 2.99295 19206 ft 384 kts 93°
2026-04-16 14:28 40.87349 3.02811 19207 ft 384 kts 93°
2026-04-16 14:28 40.87086 3.06322 19204 ft 384 kts 93°
2026-04-16 14:29 40.86820 3.09832 19209 ft 384 kts 93°
2026-04-16 14:29 40.86499 3.13340 19212 ft 385 kts 98°
2026-04-16 14:29 40.85759 3.16748 19210 ft 387 kts 109°
2026-04-16 14:29 40.84582 3.19901 19209 ft 389 kts 118°
2026-04-16 14:30 40.83242 3.22998 19210 ft 389 kts 118°
2026-04-16 14:30 40.81900 3.26105 19205 ft 389 kts 118°
2026-04-16 14:30 40.80563 3.29204 19208 ft 389 kts 118°
2026-04-16 14:30 40.79225 3.32304 19209 ft 389 kts 118°
2026-04-16 14:31 40.77885 3.35406 19208 ft 389 kts 118°
2026-04-16 14:31 40.76545 3.38501 19205 ft 389 kts 118°
2026-04-16 14:31 40.75202 3.41595 19206 ft 389 kts 118°
2026-04-16 14:31 40.73859 3.44687 19209 ft 389 kts 118°
2026-04-16 14:32 40.72512 3.47783 19208 ft 389 kts 118°
2026-04-16 14:32 40.71167 3.50874 19205 ft 389 kts 118°
2026-04-16 14:32 40.69820 3.53967 19207 ft 389 kts 118°
2026-04-16 14:32 40.68473 3.57057 19204 ft 389 kts 118°
2026-04-16 14:33 40.67129 3.60143 19208 ft 389 kts 118°
2026-04-16 14:33 40.65786 3.63234 19201 ft 389 kts 118°
2026-04-16 14:33 40.64437 3.66328 19205 ft 389 kts 118°
2026-04-16 14:33 40.63087 3.69415 19204 ft 389 kts 118°
2026-04-16 14:34 40.61738 3.72498 19205 ft 389 kts 118°
2026-04-16 14:34 40.60391 3.75571 19064 ft 383 kts 118°
2026-04-16 14:34 40.59077 3.78562 18833 ft 374 kts 118°
2026-04-16 14:34 40.57780 3.81506 18600 ft 370 kts 118°
2026-04-16 14:35 40.56494 3.84431 18355 ft 368 kts 118°
2026-04-16 14:35 40.55218 3.87333 18051 ft 364 kts 118°
2026-04-16 14:35 40.53958 3.90194 17597 ft 361 kts 118°
2026-04-16 14:35 40.52701 3.93042 17135 ft 359 kts 118°
2026-04-16 14:36 40.51352 3.95794 16682 ft 358 kts 127°
2026-04-16 14:36 40.49598 3.98111 16235 ft 359 kts 140°
2026-04-16 14:36 40.47485 3.99834 15888 ft 358 kts 154°
2026-04-16 14:36 40.45170 4.00894 15582 ft 357 kts 165°
2026-04-16 14:37 40.42777 4.01731 15257 ft 355 kts 165°
2026-04-16 14:37 40.40366 4.02404 14979 ft 353 kts 175°
2026-04-16 14:37 40.37924 4.02230 14741 ft 352 kts 188°
2026-04-16 14:37 40.35493 4.01818 14503 ft 351 kts 188°
2026-04-16 14:38 40.33077 4.01394 14271 ft 350 kts 188°
2026-04-16 14:38 40.30667 4.00962 14037 ft 349 kts 188°
2026-04-16 14:38 40.28266 4.00533 13782 ft 348 kts 188°
2026-04-16 14:38 40.25872 4.00112 13521 ft 346 kts 188°
2026-04-16 14:39 40.23491 3.99699 13260 ft 344 kts 188°
2026-04-16 14:39 40.21121 3.99285 13001 ft 343 kts 188°
2026-04-16 14:39 40.18763 3.98871 12748 ft 341 kts 188°
2026-04-16 14:39 40.16421 3.98460 12403 ft 338 kts 188°
2026-04-16 14:40 40.14100 3.98053 11979 ft 335 kts 188°
2026-04-16 14:40 40.11797 3.97653 11570 ft 333 kts 188°
2026-04-16 14:40 40.09507 3.97256 11160 ft 330 kts 188°
2026-04-16 14:40 40.07233 3.96859 10763 ft 328 kts 188°
2026-04-16 14:41 40.05009 3.96467 10371 ft 326 kts 188°
2026-04-16 14:41 40.02749 3.96070 10094 ft 319 kts 188°
2026-04-16 14:41 40.00618 3.95697 9970 ft 308 kts 188°
2026-04-16 14:41 39.98523 3.95331 9753 ft 301 kts 188°
2026-04-16 14:42 39.96460 3.94969 9422 ft 298 kts 188°
2026-04-16 14:42 39.94409 3.94613 9038 ft 296 kts 188°
2026-04-16 14:42 39.92370 3.94258 8668 ft 295 kts 188°
2026-04-16 14:42 39.90348 3.93907 8278 ft 293 kts 189°
2026-04-16 14:43 39.88327 3.93591 7881 ft 291 kts 186°
2026-04-16 14:43 39.86307 3.93453 7480 ft 290 kts 181°
2026-04-16 14:43 39.84293 3.93553 7090 ft 289 kts 176°
2026-04-16 14:43 39.82302 3.93910 6704 ft 288 kts 170°
2026-04-16 14:44 39.80354 3.94513 6281 ft 287 kts 164°
2026-04-16 14:44 39.78463 3.95348 5853 ft 286 kts 159°
2026-04-16 14:44 39.76649 3.96406 5420 ft 285 kts 153°
2026-04-16 14:44 39.74922 3.97669 4987 ft 285 kts 148°
2026-04-16 14:45 39.73295 3.99121 4548 ft 283 kts 142°
2026-04-16 14:45 39.71784 4.00745 4123 ft 281 kts 136°
2026-04-16 14:45 39.70407 4.02527 3735 ft 277 kts 130°
2026-04-16 14:45 39.69215 4.04371 3599 ft 256 kts 125°
2026-04-16 14:46 39.68217 4.06178 3461 ft 238 kts 120°
2026-04-16 14:46 39.67371 4.07989 3157 ft 232 kts 115°
2026-04-16 14:46 39.66650 4.09844 2884 ft 228 kts 110°
2026-04-16 14:46 39.66050 4.11706 2751 ft 218 kts 106°
2026-04-16 14:47 39.65569 4.13540 2586 ft 210 kts 102°
2026-04-16 14:47 39.65309 4.15337 2508 ft 194 kts 81°
2026-04-16 14:47 39.65703 4.16938 2512 ft 183 kts 51°
2026-04-16 14:47 39.66637 4.17952 2510 ft 174 kts 12°
2026-04-16 14:48 39.67837 4.18061 2514 ft 173 kts
2026-04-16 14:48 39.69022 4.18306 2516 ft 172 kts
2026-04-16 14:48 39.70204 4.18564 2511 ft 172 kts
2026-04-16 14:48 39.71355 4.18806 2537 ft 161 kts
2026-04-16 14:49 39.72432 4.19029 2509 ft 154 kts
2026-04-16 14:49 39.73481 4.19244 2487 ft 152 kts
2026-04-16 14:49 39.74520 4.19457 2356 ft 151 kts
2026-04-16 14:49 39.75557 4.19669 2185 ft 151 kts
2026-04-16 14:50 39.76593 4.19882 1998 ft 151 kts
2026-04-16 14:50 39.77281 4.20023 1866 ft 151 kts
2026-04-16 14:50 39.78320 4.20236 1661 ft 150 kts
2026-04-16 14:50 39.79308 4.20439 1470 ft 136 kts
2026-04-16 14:51 39.80198 4.20622 1290 ft 125 kts
2026-04-16 14:51 39.81046 4.20795 1122 ft 122 kts
2026-04-16 14:51 39.81876 4.20963 967 ft 121 kts
2026-04-16 14:51 39.82704 4.21134 804 ft 121 kts
2026-04-16 14:53 39.86577 4.21973 301 ft 11 kts 94°
2026-04-16 14:53 39.86561 4.22072 298 ft 10 kts 101°
2026-04-16 14:54 39.86552 4.22141 299 ft 7 kts 98°
2026-04-16 14:54 39.86546 4.22199 293 ft 9 kts 98°
2026-04-16 14:54 39.86536 4.22281 293 ft 6 kts 101°
2026-04-16 14:54 39.86499 4.22324 290 ft 9 kts 173°
2026-04-16 14:55 39.86460 4.22315 288 ft 0 kts 191°
2026-04-16 14:55 39.86457 4.22314 288 ft 2 kts 191°
2026-04-16 14:55 39.86438 4.22316 288 ft 3 kts 153°
2026-04-16 14:55 39.86428 4.22365 287 ft 6 kts 99°
2026-04-16 14:56 39.86426 4.22388 286 ft 1 kts 99°
2026-04-16 14:56 39.86425 4.22390 286 ft 0 kts 99°
2026-04-16 14:59 39.86425 4.22389 286 ft 0 kts 99°